Regional Weather Roundup
Issued by NWS

Home | Current Version | Previous Version | Graphics & Text | Print | Product List | Glossary On
Versions: 1 2 3 4 5 6 7 8 9 10 11 12 13 14 15 16 17 18 19 20 21 22 23 24 25 26 27 28 29 30 31 32 33 34 35 36 37 38 39 40 41 42 43 44 45 46 47 48 49
000
ASUS45 KSLC 012310
RWRUT
UTAH REGIONAL WEATHER ROUNDUP
NATIONAL WEATHER SERVICE SALT LAKE CITY UT
500 PM MDT SAT AUG 01 2015

UTZ001>011-023>025-020000-

NORTHERN UTAH

CITY           SKY/WX    TMP DP  RH WIND       PRES   REMARKS
BRIGHAM CITY   MOSUNNY   96  13   5 N7        30.02F
HILL AFB       SUNNY     91  36  14 W8        30.07F
LOGAN          SUNNY     95  25   8 N7        30.03F
OGDEN          MOSUNNY   93  34  12 NW5       30.03F
PROVO AIRPORT  MOSUNNY   90  41  18 VRB6      30.05F
SALT LAKE CITY PTSUNNY   94  31  10 VRB7      30.02F
VERNAL         PTSUNNY   91  21   8 SE7       30.06F
WENDOVER       PTSUNNY   91  28  10 SE6       30.05F
HEBER CITY     PTSUNNY   90  28  11 W3        30.11F
WEST JORDAN    SUNNY     91  36  14 NW8G16    30.06F

$$

UTZ012>022-026-027-020000-

SOUTHERN/CENTRAL UTAH

CITY           SKY/WX    TMP DP  RH WIND       PRES   REMARKS
BLANDING       MOSUNNY   78  60  54 W6        30.26F
BRYCE CANYON   CLOUDY    76  47  35 S10       30.31F
CEDAR CITY     CLOUDY    83  47  28 S15G22    30.14F
DELTA          PTSUNNY   92  25   9 N6        30.04F
HANKSVILLE     MOSUNNY   91  48  22 SE7       30.04F
MILFORD        CLOUDY    90  29  11 VRB7G33   30.09S
MOAB/CYNLANDS  SUNNY     91  52  26 MISG      30.02F
PRICE          SUNNY     92  30  11 SW12G17   30.10F
ST GEORGE      MOCLDY    88  55  33 SW21      30.00F

$$

REGIONAL REPORTS     COLORADO/ARIZONA

CITY           SKY/WX    TMP DP  RH WIND       PRES   REMARKS
CRAIG, CO      PTSUNNY   90  33  13 CALM      30.13F
GRAND JUNCTION CLOUDY    87  50  27 SW7       30.05F
RIFLE          CLOUDY    88  45  22 W20       30.08S
MONTROSE       CLOUDY    84  49  29 CALM      30.16F
CORTEZ         PTSUNNY   73  54  51 SE6       30.20F
PAGE, AZ       MOSUNNY   90  50  25 NW5       30.05F
GRAND CANYON   CLOUDY    74  53  48 N8        30.27F
KINGMAN        CLOUDY    80  59  48 CALM      30.06F
FLAGSTAFF      PTSUNNY   74  50  42 CALM      30.28F

$$

REGIONAL REPORTS    NEVADA/IDAHO/WYOMING

CITY           SKY/WX    TMP DP  RH WIND       PRES   REMARKS
LAS VEGAS, NV  CLOUDY    83  62  49 W3        29.95F
ELY            CLOUDY    85  33  15 SW14      30.18F
ELKO           MOSUNNY   95  22   7 E10       30.07F
POCATELLO, ID  SUNNY     95  25   8 E6        30.06F
BURLEY         MOSUNNY   94  28   9 VRB3      30.01F
EVANSTON, WY   PTSUNNY   86  22   9 NW12      30.24F
ROCK SPRINGS   MOSUNNY   85  24  11 VRB5      30.19F
KEMMERER       MOSUNNY  N/A N/A N/A CALM      30.25F

$$



USA.gov is the U.S. government's official web portal to all federal, state and local government web resources and services.